Weather History for New York, NY

Change the Weather History Date:

Monday, November 22, 2010

  Actual Average Record
Temperature  
Mean Temperature 56 °F 46 °F  
Max Temperature 67 °F 52 °F 69 °F (1940)
Min Temperature 45 °F 40 °F 21 °F (1987)
Degree Days  
Heating Degree Days 9 19  
Month to date heating degree days 317 342  
Since 1 July heating degree days 482 614  
Cooling Degree Days 0 0  
Month to date cooling degree days 0 0  
Year to date cooling degree days 1721 1213  
Growing Degree Days 5 (Base 50)    
Moisture  
Dew Point 46 °F    
Average Humidity 67    
Maximum Humidity 86    
Minimum Humidity 48    
Precipitation  
Precipitation T in 0.13 in 1.48 in (1952)
Month to date precipitation 1.53 2.46  
Year to date precipitation 37.26 40.22  
Snow  
Snow 0.00 in 0.00 in 0.40 in (1989)
Month to date snowfall T 0.1  
Since 1 July snowfall T 0.1  
Snow Depth 0.00 in    
Sea Level Pressure  
Sea Level Pressure 30.28 in    
Wind  
Wind Speed 7 mph (South)    
Max Wind Speed 17 mph    
Max Gust Speed 23 mph    
Visibility 10 miles    
Events Rain    
T = Trace of Precipitation, MM = Missing Value Source: NWS Daily Summary

Daily Weather History Graph

Daily Weather History Graph

Search for Another Location

Airport:

Trip Planner

Search our weather history database for the weather conditions in past years. The results will help you decide how hot, cold, wet, or windy it might be!

Date:

Astronomy

Nov. 22, 2010 Rise Set
Actual Time 6:50 AM EST 4:32 PM EST
Civil Twilight 6:20 AM EST 5:02 PM EST
Nautical Twilight 5:47 AM EST 5:35 PM EST
Astronomical Twilight 5:14 AM EST 6:08 PM EST
Moon 5:11 PM EST (11/22) 7:50 AM EST (11/22)
Length of Visible Light 10h 41m
Length of Day
9h 41m
Full, 99% of the Moon is Illuminated
Nov 22
Full
Nov 28
Last Quarter
Dec 5
New
Dec 13
First Quarter
Dec 21
Full

Hourly Weather History & Observations

Time (EST) Temp. Windchill Dew Point Humidity Pressure Visibility Wind Dir Wind Speed Gust Speed Precip Events Conditions
12:19 AM 44.6 °F 42.2 °F 35.6 °F 71% 30.45 in 10.0 mi East 4.6 mph - N/A   Overcast
12:51 AM 46.0 °F 43.9 °F 37.0 °F 71% 30.44 in 10.0 mi East 4.6 mph - N/A   Overcast
1:51 AM 46.9 °F - 39.0 °F 74% 30.44 in 10.0 mi NE 5.8 mph - N/A   Overcast
2:51 AM 46.9 °F - 41.0 °F 80% 30.43 in 10.0 mi NNE 4.6 mph - 0.00 in Rain Light Rain
3:51 AM 46.9 °F - 43.0 °F 86% 30.41 in 10.0 mi East 5.8 mph - 0.00 in   Overcast
4:51 AM 46.9 °F - 43.0 °F 86% 30.40 in 10.0 mi East 4.6 mph - N/A   Overcast
5:51 AM 48.0 °F - 44.1 °F 86% 30.38 in 10.0 mi NE 3.5 mph - N/A   Overcast
6:51 AM 51.1 °F - 46.0 °F 83% 30.38 in 10.0 mi Calm Calm - N/A   Overcast
7:06 AM 50.0 °F - 46.4 °F 87% 30.37 in 10.0 mi Calm Calm - N/A   Overcast
7:33 AM 51.8 °F - 46.4 °F 82% 30.35 in 10.0 mi Calm Calm - N/A   Overcast
7:51 AM 54.0 °F - 48.0 °F 80% 30.36 in 10.0 mi South 9.2 mph - N/A   Overcast
8:43 AM 55.4 °F - 48.2 °F 77% 30.35 in 10.0 mi South 9.2 mph - N/A   Overcast
8:51 AM 55.9 °F - 48.9 °F 77% 30.35 in 10.0 mi South 12.7 mph - N/A   Overcast
9:51 AM 57.9 °F - 48.9 °F 72% 30.32 in 10.0 mi South 12.7 mph 17.3 mph N/A   Scattered Clouds
10:51 AM 60.1 °F - 48.9 °F 67% 30.30 in 10.0 mi South 9.2 mph 18.4 mph N/A   Partly Cloudy
11:51 AM 62.1 °F - 48.9 °F 62% 30.26 in 10.0 mi SSW 10.4 mph - N/A   Partly Cloudy
12:51 PM 64.0 °F - 46.9 °F 54% 30.22 in 10.0 mi SW 11.5 mph 20.7 mph N/A   Scattered Clouds
1:51 PM 66.9 °F - 46.0 °F 47% 30.20 in 10.0 mi SW 10.4 mph - N/A   Mostly Cloudy
2:51 PM 66.9 °F - 46.0 °F 47% 30.18 in 10.0 mi SSW 12.7 mph 20.7 mph N/A   Mostly Cloudy
3:51 PM 66.0 °F - 46.0 °F 48% 30.18 in 10.0 mi SW 8.1 mph - N/A   Mostly Cloudy
4:51 PM 63.0 °F - 48.9 °F 60% 30.17 in 10.0 mi Variable 4.6 mph - N/A   Scattered Clouds
5:51 PM 60.1 °F - 46.9 °F 62% 30.16 in 10.0 mi South 6.9 mph - N/A   Scattered Clouds
6:51 PM 59.0 °F - 46.9 °F 64% 30.16 in 10.0 mi Variable 5.8 mph - N/A   Scattered Clouds
7:51 PM 59.0 °F - 48.0 °F 67% 30.16 in 10.0 mi South 8.1 mph - N/A   Mostly Cloudy
8:51 PM 59.0 °F - 48.0 °F 67% 30.14 in 10.0 mi SSW 5.8 mph - N/A   Mostly Cloudy
9:51 PM 57.9 °F - 46.9 °F 67% 30.12 in 10.0 mi SSW 8.1 mph - N/A   Mostly Cloudy
10:51 PM 57.9 °F - 46.9 °F 67% 30.11 in 10.0 mi SSW 5.8 mph - N/A   Mostly Cloudy
11:51 PM 57.0 °F - 46.9 °F 69% 30.09 in 10.0 mi SSW 5.8 mph - N/A   Mostly Cloudy